TIANMU-1 16

Last updated on Thu Jul 03 2025 00:02:22 GMT+0000 (Coordinated Universal Time)

1 58701U 24004B 25183.59027183 .00004492 00000+0 19875-3 0 9996 2 58701 97.4597 5.4829 0008156 139.6841 220.5001 15.22158176 82518
UTC large
Height (km)
Speed (km/s)
/
Latitude / Longitude
Inclination (degrees)
Orbital Period (minutes)
Azimuth
Elevation
Range (km)
Doppler Factor

Next 0 passes for location: London (51.5072 / 0.1276)

Sorry there are no passes over London.